Regional Weather Roundup
Issued by NWS

Home | Current Version | Previous Version | Text Only | Print | Product List | Glossary On
Versions: 1 2 3 4 5 6 7 8 9 10 11 12 13 14 15 16 17 18 19 20 21 22 23 24 25 26 27 28 29 30 31 32 33 34 35 36 37 38 39 40 41 42 43 44 45 46 47 48 49 50
000
ASUS45 KCYS 010210
RWRWY

WYOMING REGIONAL WEATHER ROUNDUP
NATIONAL WEATHER SERVICE CHEYENNE WY
800 PM MDT SAT APR 30 2016

NOTE:  "FAIR" INDICATES FEW OR NO CLOUDS BELOW 12,000 FEET
WITH NO SIGNIFICANT WEATHER AND/OR OBSTRUCTIONS TO VISIBILITY.

WYZ001-010300-
YELLOWSTONE NATIONAL PARK

CITY           SKY/WX    TMP DP  RH WIND       PRES   REMARKS
LK YELLOWSTONE   N/A     36  24  62 CALM      30.21R
W YELLOWSTONE  NOT AVBL

$$
WYZ002>013-054>058-071-098>099-010300-
NORTHERN WYOMING

CITY           SKY/WX    TMP DP  RH WIND       PRES   REMARKS
JACKSON        MOCLDY    48  25  40 NE13G21   30.09R
CODY           CLOUDY    43  32  65 N14G21    30.23R
GREYBULL       FAIR      51  26  37 E14       30.18R
WORLAND        CLOUDY    45  39  79 SW10      30.19R
SHERIDAN       CLOUDY    45  36  70 W6        30.25R
BUFFALO          N/A    N/A N/A N/A MISG      30.25R
GILLETTE       CLOUDY    46  31  55 NE10      30.21R
HULETT         FAIR      45  32  61 NE6       30.22R
NEWCASTLE      FAIR      45  28  53 N7G20     30.19R

$$
WYZ014>020-022>026-101>103-010300-
CENTRAL WYOMING

CITY           SKY/WX    TMP DP  RH WIND       PRES   REMARKS
BIG PINEY      MOCLDY    38  29  70 S12       30.14R WCI  30
PINEDALE       MOCLDY    37  32  81 MISG      30.14R
DUBOIS         CLOUDY    32  32 100 SE13G22   30.17R WCI  22
LANDER         LGT RAIN  37  33  85 CALM      30.21R
RIVERTON       CLOUDY    40  34  79 E3        30.22R
CASPER         CLOUDY    38  31  76 NE10      30.19R WCI  31
DOUGLAS        CLOUDY    39  33  79 NW7       30.19R WCI  34

$$
WYZ021-027>030-104>119-010300-
SOUTHERN WYOMING

CITY           SKY/WX    TMP DP  RH WIND       PRES   REMARKS
EVANSTON       MOCLDY    37  28  70 E15G24    30.09R WCI  28
KEMMERER         N/A     34  30  86 E17G23    30.13R WCI  23
FORT BRIDGER   CLOUDY    37  36  93 E15       30.15R WCI  28
ROCK SPRINGS   CLOUDY    35  28  75 NE22      30.14R WCI  23
DIXON          FAIR      38  23  56 NE16      30.12R WCI  29
RAWLINS        CLOUDY    32  28  85 NE12      30.16R WCI  23
SARATOGA       CLOUDY    32  27  80 NE13      30.14R WCI  22
LARAMIE        LGT SNOW  28  26  92 N12       30.13R FOG     WCI  18
CHEYENNE       LGT SNOW  31  28  89 N20G26    30.11R FOG     WCI  19
TORRINGTON     LGT RAIN  39  35  86 N13       30.14R WCI  31
PINE BLUFFS    LGT SNOW  32  32 100 N13       30.11R WCI  22

$$



USA.gov is the U.S. government's official web portal to all federal, state and local government web resources and services.